Погода в Чундже

Казахстан     43°32′18″N   79°27′47″E
темп.,
°C
ветер,
м/с
пор.,
м/с
влажн.,
%
обл.,
%
осадки,
мм/ч
давл.,
гПа
погр.,
м
17 мая, пн
пн1700:00+13ю32492 0.0 102129
03:00+11ю22520 0.0 102020
06:00+12ю22500 0.0 102116
09:00+17св33410 0.0 1021718
12:00+21св44310 0.0 10191533
15:00+23ссв32240 0.0 10172088
18:00+23ссв21220 0.0 10161879
21:00+18юв22312 0.0 101712
18 мая, вт
вт1800:00+16ю33363 0.0 101720
03:00+14ююз22360 0.0 101613
06:00+14ююз22380 0.0 101614
09:00+19ссв21320 0.0 1016449
12:00+23св33260 0.0 10131240
15:00+26св32190 0.0 10111885
18:00+26ссв22160 0.0 10091891
21:00+20юв11260 0.0 101112
19 мая, ср
ср1900:00+18ю33300 0.0 101017
03:00+16ююз332685 0.0 100921
06:00+16ююз223332 0.0 100927
09:00+22зсз222512 0.0 1009619
12:00+25с322136 0.0 10061343
15:00+27с341779 0.0 10041820
18:00+24юз81023100 0.0 1004566
21:00+21ююз583080 0.0 1006140
20 мая, чт
чт2000:00+22ююз572765 0.0 1006147
03:00+19ююз4634100 0.0 100672
06:00+19ююз4637100 0.0 100790
09:00+25зюз78251 0.0 10071456
12:00+28зсз911179 0.0 10063846
15:00+28з1213185 0.0 10063594
18:00+26з1015242 0.0 10073444
21:00+20зюз10144099 0.1 1011593
21 мая, пт
пт2100:00+19юз915474 0.1 1012589
03:00+18юз914460 0.0 1013581
06:00+17ююз35480 0.0 101574
09:00+21зсз57280 0.0 10151333
12:00+24ссз66160 0.0 10151645
15:00+26ссз55120 0.0 10132029
18:00+25сз44130 0.0 10131688
21:00+18юв01250 0.0 101513